DESFM EDDH-EDDP

Flight info

Callsign DESFM
Flight time N/A
Altitude 11000
Route EDDH AMLUH2G M852 POVEL Z94 KENIG T959 KOJEC DCT GOT1G EDDP
Aircraft C172/L-VGD/A

Departure

Time 2026-05-07 21:25
Airport Hamburg Helmut Schmidt Airport (EDDH)

Arrival

Time N/A
Airport Leipzig/Halle Airport (EDDP)
Time Latitude Longitude Altitude Speed Heading
2026-05-07 20:03 53.62620 9.98804 41 ft 0 kts 63°
2026-05-07 21:17 53.62629 9.98822 41 ft 6 kts 25°
2026-05-07 21:17 53.62664 9.98838 41 ft 6 kts 58°
2026-05-07 21:18 53.62702 9.98877 41 ft 4 kts 332°
2026-05-07 21:18 53.62747 9.98835 41 ft 9 kts 330°
2026-05-07 21:18 53.62801 9.98793 41 ft 9 kts
2026-05-07 21:18 53.62831 9.98832 41 ft 4 kts 52°
2026-05-07 21:19 53.62842 9.98855 41 ft 7 kts 50°
2026-05-07 21:19 53.62882 9.98938 42 ft 10 kts 51°
2026-05-07 21:19 53.62931 9.99039 42 ft 13 kts 50°
2026-05-07 21:19 53.62994 9.99164 42 ft 14 kts 51°
2026-05-07 21:20 53.63016 9.99208 42 ft 2 kts 49°
2026-05-07 21:20 53.63037 9.99240 42 ft 4 kts 26°
2026-05-07 21:20 53.63050 9.99252 42 ft 0 kts 31°
2026-05-07 21:20 53.63065 9.99269 42 ft 8 kts 36°
2026-05-07 21:21 53.63092 9.99296 43 ft 0 kts 15°
2026-05-07 21:23 53.63137 9.99315 43 ft 15 kts 14°
2026-05-07 21:23 53.63252 9.99356 45 ft 19 kts
2026-05-07 21:24 53.63427 9.99262 45 ft 44 kts 333°
2026-05-07 21:24 53.63829 9.98909 122 ft 75 kts 337°
2026-05-07 21:24 53.64273 9.98522 397 ft 73 kts 336°
2026-05-07 21:24 53.64754 9.98085 590 ft 83 kts 339°
2026-05-07 21:25 53.65319 9.97622 772 ft 98 kts 338°
2026-05-07 21:25 53.65743 9.97265 893 ft 108 kts 338°
2026-05-07 21:25 53.66452 9.96662 1075 ft 119 kts 338°
2026-05-07 21:25 53.67456 9.95801 1290 ft 123 kts 336°
2026-05-07 21:26 53.68239 9.95130 1464 ft 131 kts 338°
2026-05-07 21:26 53.68805 9.94701 1558 ft 132 kts 348°
2026-05-07 21:26 53.69665 9.94672 1708 ft 120 kts
2026-05-07 21:26 53.70495 9.94659 1874 ft 118 kts
2026-05-07 21:27 53.71351 9.94688 2065 ft 129 kts
2026-05-07 21:27 53.72162 9.95185 2175 ft 122 kts 46°
2026-05-07 21:27 53.72553 9.96390 2350 ft 118 kts 72°
2026-05-07 21:27 53.72860 9.97637 2505 ft 112 kts 70°
2026-05-07 21:28 53.73174 9.98862 2692 ft 114 kts 69°
2026-05-07 21:28 53.73475 10.00036 2816 ft 104 kts 70°
2026-05-07 21:28 53.73758 10.01115 2956 ft 97 kts 69°
2026-05-07 21:28 53.74032 10.02179 3144 ft 104 kts 69°
2026-05-07 21:29 53.74213 10.03368 3255 ft 103 kts 97°
2026-05-07 21:29 53.73928 10.04462 3406 ft 101 kts 119°
2026-05-07 21:29 53.73589 10.05448 3588 ft 98 kts 116°
2026-05-07 21:29 53.73246 10.06487 3718 ft 103 kts 118°
2026-05-07 21:30 53.72904 10.07514 3894 ft 101 kts 118°
2026-05-07 21:30 53.72562 10.08540 4038 ft 98 kts 117°
2026-05-07 21:30 53.72216 10.09574 4188 ft 103 kts 117°
2026-05-07 21:30 53.71864 10.10635 4351 ft 105 kts 118°
2026-05-07 21:31 53.71500 10.11712 4493 ft 104 kts 117°
2026-05-07 21:31 53.71145 10.12772 4669 ft 106 kts 117°
2026-05-07 21:31 53.70782 10.13855 4804 ft 103 kts 116°
2026-05-07 21:31 53.70445 10.14871 4952 ft 96 kts 116°
2026-05-07 21:32 53.70114 10.15866 5011 ft 101 kts 116°
2026-05-07 21:32 53.69749 10.16968 5010 ft 112 kts 116°
2026-05-07 21:32 53.69355 10.18123 5006 ft 114 kts 118°
2026-05-07 21:32 53.68965 10.19295 4996 ft 115 kts 117°
2026-05-07 21:33 53.68508 10.20439 4997 ft 122 kts 134°
2026-05-07 21:33 53.67715 10.20975 4991 ft 122 kts 163°
2026-05-07 21:33 53.66895 10.21296 4996 ft 120 kts 160°
2026-05-07 21:33 53.66094 10.21652 5010 ft 120 kts 160°
2026-05-07 21:34 53.65285 10.22015 4991 ft 119 kts 160°
2026-05-07 21:34 53.64494 10.22389 4984 ft 115 kts 157°
2026-05-07 21:34 53.63717 10.22744 4987 ft 116 kts 160°
2026-05-07 21:34 53.62938 10.23100 4989 ft 116 kts 158°
2026-05-07 21:35 53.62153 10.23453 4995 ft 117 kts 158°
2026-05-07 21:35 53.61332 10.23832 4979 ft 125 kts 159°
2026-05-07 21:35 53.60505 10.24211 4998 ft 125 kts 159°
2026-05-07 21:35 53.59682 10.24582 5011 ft 125 kts 159°
2026-05-07 21:36 53.58828 10.24972 5008 ft 125 kts 159°
2026-05-07 21:36 53.57986 10.25360 4997 ft 126 kts 159°
2026-05-07 21:36 53.57166 10.25738 4994 ft 121 kts 159°
2026-05-07 21:36 53.56344 10.26116 5000 ft 124 kts 158°
2026-05-07 21:37 53.55521 10.26492 4991 ft 121 kts 159°
2026-05-07 21:37 53.54716 10.26860 5004 ft 122 kts 159°
2026-05-07 21:37 53.53873 10.27246 4997 ft 127 kts 159°
2026-05-07 21:37 53.53015 10.27641 4980 ft 126 kts 159°
2026-05-07 21:38 53.52188 10.28013 4985 ft 121 kts 159°
2026-05-07 21:38 53.51385 10.28381 4995 ft 118 kts 159°
2026-05-07 21:38 53.50575 10.28753 4986 ft 120 kts 159°
2026-05-07 21:38 53.49764 10.29126 4976 ft 121 kts 159°
2026-05-07 21:39 53.48961 10.29490 4978 ft 119 kts 159°
2026-05-07 21:39 53.48155 10.29854 4975 ft 121 kts 158°
2026-05-07 21:39 53.47354 10.30224 4981 ft 119 kts 158°
2026-05-07 21:39 53.46545 10.30596 4966 ft 123 kts 158°
2026-05-07 21:40 53.45725 10.30967 4985 ft 121 kts 158°
2026-05-07 21:40 53.44932 10.31332 4983 ft 119 kts 158°
2026-05-07 21:40 53.44136 10.31690 4981 ft 118 kts 158°
2026-05-07 21:40 53.43311 10.32069 4970 ft 124 kts 159°
2026-05-07 21:41 53.42771 10.32295 4981 ft 123 kts 163°